Theta_e
318 317 320 321 319 318 317 318 319 320 321 319 320 322 322 321 319 318 320 319 319 318 318 318 317 318 319 320 322 322 324 326 327 327 325 329 344 351 351 349 348 347 346 343
318 320 320 317 317 317 318 319 320 321 320 320 321 322 322 321 318 320 320 320 319 318 318 317 317 317 318 318 320 323 323 325 327 328 328 327 336 342 352 351 349 348 348 346
318 319 317 316 317 317 319 320 320 319 320 321 322 323 322 319 319 320 320 320 319 318 317 316 316 316 316 318 318 321 322 323 324 326 329 326 336 340 344 351 350 349 348 347
317 318 316 316 317 318 319 319 318 319 322 324 322 322 322 322 321 321 320 320 318 317 317 317 316 316 315 316 317 318 320 321 322 326 331 332 334 346 340 352 350 350 349 348
320 318 317 317 318 317 317 318 319 321 323 324 323 322 323 321 321 321 321 319 318 317 317 316 316 315 315 314 315 315 319 320 321 323 325 330 335 343 344 351 351 349 350 348
317 316 315 316 317 317 318 319 322 324 323 326 326 325 322 323 322 322 319 319 318 318 316 316 315 315 315 314 314 314 315 319 320 320 322 330 339 345 345 345 351 350 351 350
319 318 317 315 317 319 319 322 332 329 327 330 324 322 323 323 323 321 319 318 318 317 316 315 315 314 314 314 313 313 313 317 319 319 320 327 340 346 343 340 351 351 350 351
318 321 319 317 318 320 319 321 325 331 327 326 323 324 325 323 322 319 318 318 317 317 316 314 313 312 313 313 312 312 313 315 317 318 319 324 334 344 343 341 350 349 351 351
319 319 318 317 317 318 322 322 322 323 324 325 324 324 324 323 322 321 320 319 318 316 314 312 312 311 311 311 311 312 312 313 316 318 319 320 329 338 344 342 342 349 349 349
320 319 318 318 316 317 318 321 324 325 327 326 322 323 324 325 324 322 320 318 318 315 313 311 311 310 310 310 310 311 311 313 314 317 318 318 325 333 340 344 341 344 350 350
318 320 321 318 318 320 321 320 320 321 323 326 326 322 324 322 322 320 320 318 317 314 313 311 310 310 309 309 308 310 310 312 313 315 317 318 320 330 337 343 346 340 340 346
317 322 322 320 320 318 318 320 322 326 323 323 323 323 321 321 320 319 318 318 316 314 312 311 310 309 308 307 307 307 309 310 312 313 315 317 320 323 334 339 343 346 342 338
319 320 325 321 321 321 319 319 319 320 320 323 326 322 322 321 321 319 319 318 315 314 312 310 309 308 308 307 306 306 307 308 310 312 314 316 319 323 327 337 341 343 343 341
315 319 322 324 321 319 321 320 320 320 325 322 321 321 321 321 321 320 318 316 315 313 311 310 308 307 307 306 306 307 307 307 308 310 312 315 318 322 324 328 337 340 340 341
315 319 319 319 319 319 319 318 318 320 321 323 320 321 321 321 320 318 317 316 314 312 311 308 307 307 306 306 305 306 306 306 307 309 311 314 316 319 322 325 332 339 339 336
317 319 319 319 318 318 319 318 318 319 319 319 320 321 320 319 318 317 317 315 313 311 310 308 307 307 305 304 304 305 304 305 306 307 309 312 315 317 321 323 328 335 339 333
317 319 321 322 319 319 322 320 321 320 319 319 321 320 319 319 319 317 316 314 312 310 308 307 307 307 305 304 304 303 303 303 304 306 308 311 314 316 320 324 325 331 337 335
319 320 321 322 320 321 320 321 318 318 318 319 319 319 318 318 316 315 313 313 311 309 308 308 306 306 304 304 303 303 302 303 304 305 308 311 313 316 319 324 326 328 335 342
316 320 323 321 322 321 319 319 319 320 320 317 317 317 317 316 316 315 313 312 310 309 308 307 307 305 303 303 302 302 303 302 303 305 307 310 313 314 318 324 326 328 332 340
317 317 323 321 322 321 320 318 316 316 322 318 316 317 317 316 318 317 313 311 309 309 308 307 305 303 303 302 302 301 302 302 303 303 305 307 311 315 318 323 325 326 331 336
321 321 323 324 321 319 317 317 316 318 323 318 317 317 316 318 316 313 311 309 309 309 307 306 304 303 303 302 301 301 301 302 302 304 306 308 310 314 317 321 324 328 329 335
320 320 319 320 320 320 316 318 320 317 317 316 315 316 316 316 314 311 310 309 309 308 306 306 303 304 303 301 300 300 301 301 303 305 307 310 311 314 319 320 323 325 328 333
322 319 324 320 320 318 317 317 317 316 316 315 315 316 316 315 312 311 310 309 308 306 306 305 302 303 302 301 301 300 302 302 305 309 313 312 314 316 317 321 323 324 323 328
318 318 320 320 318 317 318 317 316 316 315 315 316 316 315 313 312 310 310 308 307 305 304 304 302 303 302 301 302 301 301 303 307 308 311 316 319 319 323 322 321 322 321 326
318 317 318 319 318 315 314 315 315 315 314 315 315 314 313 311 310 309 308 306 305 305 304 303 302 303 301 301 302 302 302 304 306 308 312 315 319 322 323 323 321 321 320 321
316 317 318 322 315 315 315 314 314 315 315 315 314 312 311 310 310 308 306 305 304 303 304 303 302 303 302 302 302 302 303 303 306 309 312 314 317 318 320 322 321 320 318 317
Wind_Speed
3 9 14 3 3 9 11 13 14 12 9 9 15 19 20 15 11 5 5 7 10 14 17 18 19 20 21 22 24 25 25 26 28 30 29 33 40 49 47 44 43 41 41 39
10 14 6 1 7 10 11 13 14 10 4 13 19 18 19 11 8 5 5 6 10 14 17 19 21 22 23 23 24 24 24 26 27 27 30 30 40 49 58 53 49 47 43 41
11 6 7 5 10 11 13 11 11 13 16 21 18 22 12 8 9 11 9 6 11 14 18 22 25 25 24 24 24 25 25 26 28 29 31 36 39 49 50 57 48 48 47 43
10 8 6 9 12 7 12 3 10 15 12 9 7 7 12 18 15 14 10 8 11 14 20 26 27 27 27 26 25 25 25 26 26 28 26 30 43 49 48 58 49 46 47 44
5 7 11 11 10 2 11 10 15 15 16 14 17 9 15 11 15 14 4 7 11 15 21 29 29 27 27 26 26 25 26 24 24 27 32 32 42 52 45 48 50 45 43 44
15 1 8 12 3 10 12 16 19 16 9 8 14 10 9 5 3 3 3 7 13 19 27 32 28 28 27 26 25 27 27 24 26 26 32 31 41 48 43 38 49 44 41 42
14 13 9 6 11 12 12 12 5 5 8 9 6 7 15 8 7 2 4 9 16 24 28 28 29 31 29 25 26 27 26 26 27 27 34 30 33 43 47 44 48 45 42 39
9 11 15 11 10 7 7 5 4 5 7 11 18 9 4 6 7 3 4 10 18 25 29 30 31 30 29 26 27 27 28 27 26 29 32 30 24 36 46 48 34 36 41 42
4 7 9 5 6 6 6 6 9 6 14 11 10 14 14 12 5 10 12 16 23 28 29 30 31 28 25 27 27 27 28 27 26 26 28 28 26 22 34 47 44 32 40 45
3 6 11 8 6 11 11 6 3 4 5 8 10 16 8 6 5 9 12 21 23 28 28 29 29 29 29 26 26 27 27 27 26 24 24 28 24 20 30 27 32 48 38 39
3 5 8 8 12 10 7 10 7 4 7 5 8 5 4 8 7 11 15 23 22 28 28 29 30 31 29 27 26 28 26 26 26 24 24 25 23 20 22 30 32 41 40 36
8 6 7 13 4 3 10 13 12 5 5 7 9 14 11 2 4 15 18 23 26 28 28 28 29 31 28 26 27 26 25 25 24 24 24 23 23 20 22 28 26 31 33 38
8 6 4 7 6 7 9 12 12 7 8 15 11 8 6 9 14 19 24 21 25 28 27 28 29 30 29 27 28 26 26 25 25 25 23 24 22 21 19 23 26 25 30 35
3 8 10 7 4 9 8 13 16 16 11 16 21 25 23 23 22 21 27 24 25 27 27 27 30 29 30 29 27 26 26 26 25 25 24 22 22 21 19 21 26 19 32 38
12 10 14 18 19 18 19 20 20 22 23 21 24 26 25 24 18 19 22 25 25 27 27 28 31 29 30 30 27 26 26 27 25 25 24 23 22 20 21 22 23 26 24 29
15 9 10 17 17 18 23 22 23 25 24 26 26 25 19 14 11 20 23 23 24 25 25 28 30 29 31 31 30 28 27 26 26 25 25 23 21 19 17 22 22 18 17 34
18 13 10 15 13 15 14 18 19 22 20 17 19 18 15 17 16 19 21 22 20 22 26 29 29 28 33 32 30 29 28 27 27 26 25 23 22 19 16 16 22 12 28 28
16 18 9 9 11 13 5 1 5 8 11 12 14 15 15 16 17 19 20 13 18 23 26 27 27 30 32 31 33 31 28 27 26 26 24 21 20 19 16 15 16 14 13 19
17 14 4 5 10 17 16 8 13 3 8 12 12 10 12 15 16 15 1 11 21 24 25 25 25 30 31 32 31 31 31 27 25 24 24 20 18 19 15 13 11 15 10 28
21 17 10 9 5 6 1 4 4 2 9 6 2 7 11 11 9 9 17 20 22 22 23 23 24 31 32 30 30 30 31 29 27 24 24 21 19 18 17 12 9 12 10 12
12 14 16 14 10 10 11 4 7 4 2 3 9 14 13 9 10 17 18 21 20 22 23 20 26 33 31 30 29 30 30 30 31 27 25 23 19 17 16 13 7 7 10 2
12 9 7 12 9 15 14 13 7 2 4 7 12 14 13 12 12 13 17 18 20 22 22 21 28 32 31 30 30 31 31 30 29 23 20 17 16 15 13 10 9 6 5 4
9 10 9 11 8 8 8 12 19 6 7 10 12 13 11 10 11 14 16 17 18 20 19 20 28 31 31 32 30 30 30 30 27 16 11 5 9 12 12 12 7 9 7 2
16 16 12 10 11 15 10 17 17 14 14 14 12 10 9 10 11 13 15 16 17 17 18 19 28 31 31 32 31 29 29 28 22 13 11 3 4 7 4 6 6 14 11 10
13 9 14 16 14 12 14 14 17 18 14 11 9 7 8 9 10 12 14 15 15 15 16 17 25 29 30 31 32 30 28 27 23 16 11 10 8 9 8 11 10 15 14 17
16 13 12 8 10 11 15 9 8 9 10 9 8 7 6 7 9 11 13 14 13 14 14 16 22 27 29 29 31 31 27 25 23 19 14 12 9 9 5 6 5 21 16 14
Wind_Direction
245 273 235 124 20 304 289 274 273 272 292 299 270 285 281 278 272 237 285 318 328 329 329 328 323 314 305 301 302 302 296 294 291 283 274 268 252 238 216 213 210 212 222 208
236 238 88 18 285 275 265 268 270 301 232 292 288 277 277 252 215 230 264 298 318 321 324 324 324 323 309 299 298 301 300 296 293 284 276 264 259 248 223 207 209 205 213 207
268 15 98 254 273 250 255 274 295 306 304 278 268 273 216 182 215 211 246 288 315 322 324 323 322 318 314 303 297 294 299 295 296 289 276 268 255 253 241 208 207 204 210 210
266 148 221 270 264 256 276 50 295 291 296 295 311 297 203 197 201 226 221 276 319 321 322 323 318 316 313 306 298 294 296 299 298 297 290 273 261 246 240 211 202 203 207 208
66 214 252 259 261 141 276 323 290 281 277 281 268 236 271 161 223 229 195 311 307 315 322 325 319 314 310 305 300 296 293 302 299 299 287 271 252 252 243 225 196 200 202 211
268 34 269 257 294 249 290 279 272 257 256 261 254 239 281 288 220 43 292 292 308 315 320 321 317 314 308 307 305 303 295 296 303 301 301 277 256 249 239 223 213 203 205 209
199 223 209 241 256 216 234 281 308 259 196 235 117 256 255 266 176 257 308 304 317 313 323 321 318 316 312 307 309 306 302 300 301 312 306 298 262 246 245 232 213 195 206 206
247 188 194 186 248 316 293 305 277 269 271 303 325 272 262 69 105 176 260 286 305 321 324 320 318 316 312 313 311 310 310 307 310 314 313 308 282 240 245 242 223 200 203 209
260 224 141 206 234 245 129 261 29 304 266 253 239 254 198 135 183 229 256 312 320 330 321 323 322 318 319 314 313 311 311 310 311 312 314 317 309 257 235 244 240 221 218 220
155 264 191 161 229 232 255 25 234 214 277 293 293 301 303 169 255 357 323 326 323 323 324 325 324 323 319 317 313 312 308 308 307 310 313 315 317 284 236 232 246 236 220 215
192 208 149 175 213 234 179 226 227 270 269 279 302 278 74 323 349 311 323 316 327 325 322 325 326 323 319 320 315 313 310 308 307 309 311 316 321 302 251 230 227 240 237 224
205 196 251 233 148 261 272 268 186 221 246 250 288 278 289 333 262 307 311 322 331 321 323 326 323 325 323 318 320 314 311 310 308 307 307 312 312 312 271 243 234 234 232 239
156 219 252 211 193 213 238 228 240 230 264 258 276 265 144 226 266 297 324 334 325 320 325 325 327 323 323 320 320 317 315 312 307 305 303 306 309 308 291 263 245 242 240 239
163 233 231 245 300 331 249 226 232 211 233 256 255 274 284 299 310 324 318 324 318 318 323 327 326 323 322 322 318 317 315 315 310 304 300 296 299 302 304 282 253 252 249 247
217 246 249 257 263 269 267 261 257 250 231 236 267 279 286 286 304 307 313 313 319 318 322 325 323 321 324 322 319 318 316 315 314 306 297 293 293 299 306 297 273 236 247 243
203 254 256 270 272 270 270 266 262 256 256 262 267 273 291 340 306 308 312 322 314 317 322 321 321 322 324 322 318 316 317 315 314 306 297 293 287 289 293 299 288 252 244 216
221 230 250 271 273 279 275 265 269 258 253 259 269 289 320 304 304 319 323 314 317 321 319 319 323 324 323 319 317 314 315 314 310 304 297 290 287 281 283 289 295 278 229 220
213 227 224 269 299 261 231 220 302 302 278 277 273 283 295 304 317 321 307 321 319 319 320 320 321 323 323 318 317 317 316 313 310 302 297 287 279 273 277 283 295 293 263 220
219 237 206 230 249 281 301 291 219 263 279 279 273 286 310 309 319 300 344 327 322 319 317 319 319 324 322 322 320 317 318 314 310 302 295 286 273 267 270 267 283 284 281 217
215 213 218 230 240 244 270 122 71 314 273 145 161 298 301 314 293 296 319 320 317 317 319 322 322 325 332 326 325 320 320 319 316 306 292 284 264 257 254 258 268 299 328 222
203 199 212 224 237 260 246 213 146 240 57 154 310 311 303 297 283 297 308 312 313 318 321 323 328 332 336 332 331 325 323 325 317 308 292 277 245 250 248 238 225 281 293 34
175 184 208 230 229 248 232 166 206 239 239 299 306 308 303 301 297 301 303 310 318 321 322 323 328 336 340 341 336 332 335 332 328 318 296 267 231 241 233 228 234 240 283 306
194 203 194 197 210 238 230 187 219 241 281 298 303 307 301 294 297 299 313 316 320 321 322 323 332 338 343 346 344 340 340 342 339 334 327 247 216 229 224 188 215 231 271 308
222 191 226 222 234 247 210 227 247 251 270 286 291 288 284 287 296 309 314 320 320 322 322 326 336 343 345 348 349 349 347 352 351 3 12 148 190 196 199 205 211 229 268 293
235 202 227 243 235 265 267 255 247 251 266 264 272 269 278 288 303 314 318 319 321 320 322 327 337 346 349 350 354 354 351 359 360 19 43 77 114 154 191 203 191 220 232 254
244 230 232 237 227 245 250 275 260 246 244 242 245 252 264 287 306 315 318 319 321 318 321 326 336 349 351 353 359 358 359 5 5 14 30 42 70 84 97 143 201 215 263 266